Retour au catalogue

IRIDIUM 147

ActifCommunicationsPO
NORAD 43480·PAYLOAD·🇺🇸 United States

Lancé May 22, 2018 depuis Vandenberg Space Force Base

Loading…

Prochains Passages (prochaines 24 heures)

TLE

FraisSource: CelesTrak SupGP

Époque: Sep 14, 2026, 22:05 UTC

1 43480C 18047E   26257.92048611  .00001526  00000+0  54556-3 0  2570
2 43480  86.3946  50.7862 0002126  92.3480  12.1452 14.34212730    15

Suivez IRIDIUM 147 en temps réel avec AllMySat

Download on the App Store